Torna al catalogo

NOAA 16 DEB

AttivoSSO
NORAD 41499·DEBRIS·🇺🇸 United States

Lanciato Sep 21, 2000 da Vandenberg Space Force Base

Loading…

Prossimi Passaggi (prossime 24 ore)

TLE

AggiornatoSource: Space-Track

Epoca: Sep 13, 2026, 13:04 UTC

1 41499U 00055LX  26256.54477367  .00005474  00000-0  14893-2 0  9998
2 41499  98.6919 351.0064 0022732 339.8231  20.2060 14.47731795545805

Traccia NOAA 16 DEB in tempo reale con AllMySat

Download on the App Store